{"data":{"norad_id":59457,"epoch":"2026-09-21T14:03:18.571104Z","epoch_age_seconds":71786,"freshness":"FRESH","line1":"1 59457U 24068C   26264.58563161  .00000613  00000+0  31791-4 0  9999","line2":"2 59457  43.0012   4.6426 0001248 291.9437  68.1282 15.27576029138524","mean_motion":15.27576029,"eccentricity":0.0001248,"inclination_deg":43.0012,"raan_deg":4.6426,"arg_perigee_deg":291.9437,"mean_anomaly_deg":68.1282,"bstar":3.1791e-5,"rev_number":13852,"period_min":94.266993764145,"perigee_km":482.20470915923,"apogee_km":483.91726417671,"semimajor_km":6861.197986668,"source":"CELESTRAK","updated_at":"2026-09-22T09:00:48.943533Z"}}